Location: Condor
(52.3263°N, 114.5541°W)
Time: 20:53:12
(UTC+00:00)

Oscar 19 - Pass Details

Date: 14 December 2023
Orbit: 771 x 789 km, 98.9° (Epoch: 04 March)

Event Time Altitude Azimuth Distance (km) Brightness Sun altitude
Rises 13:45:31 0° 10° (N) 3,281 13.8 -16.3°
Reaches altitude 10° 13:48:02 10° 1° (N) 2,352 13.0 -15.9°
Maximum altitude 13:52:35 32° 300° (WNW) 1,330 11.3 -15.3°
Drops below altitude 10° 13:57:07 10° 238° (WSW) 2,348 12.8 -14.6°
Sets 13:59:38 0° 229° (SW) 3,275 13.6 -14.3°
